Regional Weather Roundup
Issued by NWS Little Rock, AR

Home | Current Version | Previous Version | Text Only | Print | Product List | Glossary On
Versions: 1 2 3 4 5 6 7 8 9 10 11 12 13 14 15 16 17 18 19 20 21 22 23 24 25 26 27 28 29 30 31 32
000
ASUS44 KLZK 200105
RWRLZK

WEATHER ROUNDUP FOR ARKANSAS
NATIONAL WEATHER SERVICE LITTLE ROCK AR
700 PM CST MON FEB 19 2018

NOTE: "FAIR" INDICATES FEW OR NO CLOUDS BELOW 12,000 FEET WITH NO
SIGNIFICANT WEATHER AND/OR OBSTRUCTIONS TO VISIBILITY.

ARZ001-003-010-029-200200-
NORTHWEST ARKANSAS

CITY           SKY/WX    TMP DP  RH WIND       PRES   REMARKS
FAYETTEVILLE   CLOUDY    65  61  87 S12G22    29.84F
FORT SMITH     CLOUDY    64  63  96 E7        29.84S
HARRISON       CLOUDY    67  57  70 S20G32    29.86F
BENTONVILLE    MOCLDY    65  59  81 S14       29.84S
ROGERS         CLOUDY    65  59  81 S22       29.83F
SILOAM SPGS    CLOUDY    66  60  81 S14G24    29.82S
SPRINGDALE     CLOUDY    66  61  82 S13G22    29.85S
$$

ARZ004-005-016-200200-
NORTH CENTRAL ARKANSAS

CITY           SKY/WX    TMP DP  RH WIND       PRES   REMARKS
BATESVILLE     CLOUDY    68  59  73 E5        29.98S
FLIPPIN        MOCLDY    69  56  62 S8        29.90R
MTN HOME       PTCLDY    68  56  65 SW10G22   29.91R
$$

ARZ040-041-200200-
WEST CENTRAL ARKANSAS

CITY           SKY/WX    TMP DP  RH WIND       PRES   REMARKS
MENA           CLOUDY    72  59  64 SE7G17    29.89S
MOUNT IDA      MOCLDY    73  57  57 VRB6G18   29.89F
$$

ARZ009-017-025-026-028-200200-
NORTHEAST ARKANSAS

CITY           SKY/WX    TMP DP  RH WIND       PRES   REMARKS
JONESBORO      FAIR      67  63  87 S12       30.00R
NEWPORT          N/A     64  61  90 E5        29.99S
WALNUT RIDGE   FAIR      66  61  84 S14       29.98R
BLYTHEVILLE    FAIR      66  59  78 S9        30.02S
$$

ARZ022-023-033-042-044-200200-
CENTRAL ARKANSAS

CITY           SKY/WX    TMP DP  RH WIND       PRES   REMARKS
LITTLE ROCK    MOCLDY    67  61  81 S9        29.96S
N LITTLE ROCK    N/A     68  61  79 SE6       29.93F
JACKSONVILLE   FAIR      69  62  78 SE3       29.95S
SEARCY         FAIR      66  64  93 SE5       29.97S
HOT SPRINGS    CLOUDY    71  60  68 E7        29.93F
RUSSELLVILLE   CLOUDY    71  58  63 SE8       29.90S
CLINTON        MOCLDY    70  57  64 VRB6      29.93F
$$

ARZ036-200200-
EAST ARKANSAS

CITY           SKY/WX    TMP DP  RH WIND       PRES   REMARKS
WEST MEMPHIS   FAIR      67  58  72 SE6       30.01S
$$

ARZ050-053-066-070-073-200200-
SOUTHWEST ARKANSAS

CITY           SKY/WX    TMP DP  RH WIND       PRES   REMARKS
ARKADELPHIA    FAIR      70  57  63 S8        29.94S
CAMDEN         FAIR      72  54  53 S7        29.96R
TEXARKANA      FAIR      73  53  49 S16G22    29.91F
EL DORADO      FAIR      74  59  59 SE10G17   29.97R
DE QUEEN       CLOUDY    74  58  57 SE7       29.86F
$$

ARZ056-057-069-200200-
SOUTHEAST ARKANSAS

CITY           SKY/WX    TMP DP  RH WIND       PRES   REMARKS
PINE BLUFF     FAIR      69  59  70 SE8       29.98R
STUTTGART      FAIR      70  60  70 S13       29.99R
MONTICELLO     FAIR      73  60  63 S5        30.00R

$$






USA.gov is the U.S. government's official web portal to all federal, state and local government web resources and services.